Total_Precipitation_Accumulation
0.30 0.28 0.33 0.39 0.41 0.50 0.64 0.82 1.06 0.95 0.73 0.62 0.61 0.57 0.59 0.65 0.58 0.53 0.51 0.49 0.49 0.47 0.49 0.53 0.56 0.66 0.73 0.84 1.02 1.14 1.21 1.18 1.09 1.01 0.91 0.82 0.74 0.65 0.66 0.58 0.56 0.63 0.79 0.96
0.17 0.18 0.22 0.33 0.45 0.58 0.65 0.71 0.74 0.65 0.61 0.47 0.44 0.40 0.40 0.46 0.46 0.46 0.41 0.36 0.36 0.38 0.39 0.44 0.49 0.57 0.58 0.69 0.85 0.96 1.02 1.05 1.09 1.04 0.87 0.78 0.68 0.59 0.56 0.53 0.53 0.55 0.64 0.79
0.19 0.16 0.26 0.47 0.56 0.63 0.62 0.57 0.50 0.47 0.42 0.31 0.28 0.24 0.24 0.30 0.34 0.38 0.37 0.31 0.30 0.30 0.33 0.40 0.48 0.52 0.57 0.67 0.80 0.83 0.87 0.89 0.93 0.91 0.76 0.69 0.57 0.50 0.50 0.51 0.53 0.52 0.58 0.71
0.29 0.24 0.46 0.66 0.53 0.48 0.53 0.43 0.29 0.26 0.26 0.24 0.20 0.16 0.15 0.15 0.17 0.19 0.23 0.24 0.29 0.28 0.27 0.30 0.38 0.49 0.62 0.66 0.66 0.67 0.72 0.73 0.72 0.72 0.67 0.59 0.49 0.45 0.45 0.47 0.51 0.51 0.53 0.58
0.42 0.40 0.51 0.59 0.40 0.37 0.45 0.42 0.23 0.17 0.17 0.14 0.13 0.11 0.09 0.09 0.12 0.12 0.12 0.15 0.20 0.20 0.20 0.21 0.23 0.27 0.33 0.38 0.40 0.41 0.51 0.58 0.62 0.63 0.59 0.54 0.49 0.53 0.55 0.53 0.51 0.49 0.48 0.49
0.50 0.57 0.64 0.45 0.19 0.18 0.33 0.50 0.21 0.12 0.10 0.09 0.09 0.12 0.10 0.10 0.11 0.10 0.09 0.08 0.11 0.15 0.14 0.14 0.16 0.17 0.19 0.22 0.26 0.28 0.33 0.39 0.46 0.52 0.55 0.58 0.68 0.74 0.73 0.68 0.60 0.52 0.48 0.46
0.56 0.75 0.70 0.41 0.18 0.20 0.37 0.52 0.27 0.12 0.08 0.09 0.10 0.10 0.09 0.10 0.10 0.09 0.08 0.06 0.08 0.10 0.11 0.13 0.13 0.13 0.16 0.18 0.18 0.19 0.19 0.24 0.34 0.49 0.56 0.65 0.78 0.81 0.76 0.68 0.59 0.54 0.50 0.46
0.70 0.90 0.93 0.47 0.26 0.30 0.28 0.19 0.16 0.10 0.08 0.09 0.08 0.08 0.08 0.09 0.08 0.08 0.08 0.07 0.07 0.08 0.09 0.12 0.14 0.11 0.12 0.19 0.18 0.19 0.19 0.23 0.30 0.40 0.52 0.65 0.75 0.74 0.72 0.72 0.65 0.58 0.57 0.54
0.75 0.77 0.61 0.36 0.25 0.19 0.13 0.12 0.08 0.06 0.06 0.07 0.07 0.08 0.08 0.09 0.08 0.07 0.08 0.07 0.08 0.09 0.09 0.10 0.11 0.12 0.12 0.15 0.17 0.18 0.18 0.18 0.20 0.28 0.42 0.59 0.67 0.68 0.68 0.70 0.68 0.64 0.61 0.58
0.34 0.24 0.20 0.17 0.15 0.10 0.07 0.07 0.04 0.03 0.03 0.07 0.09 0.09 0.08 0.08 0.08 0.08 0.08 0.07 0.06 0.08 0.08 0.09 0.11 0.13 0.16 0.18 0.17 0.16 0.18 0.19 0.17 0.18 0.23 0.32 0.39 0.46 0.53 0.58 0.59 0.59 0.59 0.60
0.28 0.14 0.10 0.09 0.08 0.06 0.05 0.05 0.03 0.02 0.02 0.04 0.08 0.09 0.06 0.08 0.07 0.08 0.08 0.08 0.07 0.08 0.08 0.09 0.11 0.11 0.13 0.16 0.18 0.17 0.19 0.20 0.20 0.22 0.25 0.26 0.28 0.32 0.36 0.39 0.46 0.52 0.52 0.54
0.25 0.16 0.10 0.07 0.06 0.05 0.05 0.04 0.03 0.02 0.03 0.05 0.07 0.07 0.06 0.05 0.06 0.07 0.08 0.09 0.08 0.09 0.10 0.10 0.11 0.12 0.12 0.13 0.14 0.16 0.17 0.16 0.16 0.17 0.20 0.22 0.23 0.26 0.28 0.29 0.35 0.37 0.38 0.38
0.12 0.11 0.09 0.08 0.08 0.05 0.04 0.04 0.03 0.03 0.03 0.04 0.05 0.08 0.05 0.04 0.05 0.07 0.08 0.07 0.08 0.09 0.10 0.10 0.11 0.11 0.13 0.13 0.13 0.14 0.15 0.15 0.14 0.14 0.17 0.20 0.20 0.23 0.26 0.25 0.23 0.22 0.25 0.29
0.06 0.08 0.10 0.08 0.07 0.05 0.05 0.04 0.04 0.03 0.03 0.03 0.04 0.07 0.06 0.05 0.07 0.08 0.07 0.07 0.07 0.08 0.09 0.10 0.09 0.09 0.11 0.13 0.14 0.15 0.16 0.18 0.18 0.20 0.21 0.19 0.20 0.24 0.27 0.29 0.25 0.18 0.18 0.22
0.06 0.07 0.08 0.07 0.05 0.05 0.05 0.05 0.04 0.03 0.03 0.05 0.05 0.05 0.07 0.08 0.10 0.10 0.08 0.07 0.07 0.07 0.09 0.09 0.09 0.09 0.10 0.13 0.15 0.16 0.16 0.16 0.19 0.23 0.23 0.23 0.25 0.29 0.29 0.28 0.25 0.21 0.19 0.19
0.07 0.06 0.07 0.07 0.06 0.04 0.05 0.05 0.05 0.05 0.04 0.06 0.08 0.07 0.06 0.07 0.09 0.10 0.11 0.10 0.09 0.08 0.10 0.12 0.12 0.13 0.13 0.14 0.15 0.16 0.18 0.21 0.21 0.21 0.23 0.26 0.26 0.27 0.26 0.24 0.23 0.21 0.20 0.21
0.08 0.07 0.06 0.06 0.05 0.04 0.05 0.06 0.07 0.08 0.07 0.07 0.10 0.09 0.07 0.06 0.07 0.09 0.10 0.11 0.10 0.10 0.10 0.13 0.16 0.16 0.15 0.14 0.14 0.15 0.18 0.20 0.21 0.20 0.19 0.21 0.21 0.21 0.22 0.21 0.20 0.19 0.17 0.18
0.08 0.07 0.05 0.04 0.04 0.05 0.06 0.08 0.09 0.08 0.08 0.09 0.11 0.11 0.09 0.08 0.08 0.09 0.10 0.10 0.09 0.08 0.08 0.10 0.15 0.17 0.15 0.14 0.15 0.16 0.18 0.18 0.17 0.16 0.18 0.19 0.20 0.21 0.23 0.24 0.24 0.22 0.21 0.19
0.07 0.07 0.05 0.05 0.05 0.07 0.09 0.10 0.09 0.09 0.09 0.09 0.10 0.11 0.11 0.11 0.10 0.09 0.09 0.09 0.07 0.07 0.07 0.09 0.13 0.14 0.13 0.14 0.15 0.15 0.16 0.18 0.18 0.17 0.18 0.19 0.21 0.23 0.23 0.24 0.26 0.26 0.27 0.25
0.11 0.10 0.09 0.09 0.10 0.11 0.11 0.11 0.10 0.09 0.08 0.09 0.10 0.10 0.10 0.09 0.09 0.09 0.09 0.09 0.08 0.08 0.08 0.10 0.10 0.11 0.12 0.14 0.17 0.14 0.14 0.15 0.18 0.20 0.20 0.22 0.24 0.24 0.24 0.23 0.24 0.24 0.24 0.25
0.15 0.14 0.13 0.13 0.13 0.11 0.11 0.12 0.11 0.11 0.11 0.10 0.10 0.10 0.10 0.09 0.08 0.08 0.09 0.09 0.09 0.08 0.08 0.10 0.10 0.11 0.14 0.17 0.17 0.14 0.13 0.13 0.16 0.19 0.20 0.21 0.25 0.28 0.30 0.27 0.24 0.23 0.23 0.23
0.17 0.16 0.14 0.12 0.12 0.12 0.12 0.11 0.12 0.12 0.11 0.12 0.12 0.12 0.11 0.11 0.11 0.10 0.10 0.12 0.12 0.13 0.12 0.11 0.11 0.15 0.19 0.20 0.16 0.16 0.16 0.15 0.16 0.18 0.20 0.21 0.24 0.28 0.33 0.34 0.31 0.27 0.27 0.28
0.16 0.15 0.15 0.13 0.13 0.12 0.12 0.13 0.14 0.14 0.14 0.13 0.14 0.15 0.16 0.17 0.16 0.17 0.18 0.16 0.16 0.18 0.16 0.16 0.18 0.22 0.23 0.20 0.18 0.18 0.19 0.19 0.20 0.20 0.22 0.25 0.27 0.31 0.34 0.35 0.36 0.35 0.34 0.34
0.21 0.18 0.18 0.18 0.16 0.16 0.18 0.19 0.18 0.16 0.18 0.19 0.18 0.18 0.20 0.22 0.22 0.22 0.23 0.23 0.21 0.19 0.16 0.17 0.19 0.21 0.22 0.19 0.21 0.23 0.23 0.25 0.27 0.28 0.29 0.32 0.32 0.34 0.37 0.38 0.39 0.40 0.40 0.41
0.28 0.25 0.25 0.27 0.27 0.26 0.26 0.25 0.23 0.20 0.19 0.20 0.20 0.18 0.18 0.19 0.22 0.24 0.24 0.25 0.25 0.23 0.20 0.21 0.23 0.24 0.21 0.19 0.23 0.26 0.29 0.31 0.34 0.35 0.35 0.35 0.35 0.36 0.37 0.39 0.41 0.43 0.44 0.45
0.25 0.24 0.24 0.26 0.28 0.27 0.26 0.25 0.25 0.24 0.22 0.21 0.22 0.21 0.20 0.21 0.22 0.24 0.26 0.27 0.27 0.27 0.24 0.21 0.21 0.21 0.20 0.22 0.24 0.26 0.29 0.31 0.32 0.32 0.34 0.37 0.39 0.39 0.41 0.43 0.44 0.47 0.49 0.50
0.23 0.22 0.22 0.24 0.27 0.25 0.24 0.25 0.27 0.27 0.27 0.28 0.30 0.29 0.28 0.28 0.29 0.29 0.28 0.29 0.31 0.30 0.28 0.28 0.28 0.26 0.26 0.27 0.27 0.28 0.30 0.31 0.31 0.33 0.36 0.38 0.42 0.45 0.46 0.46 0.48 0.51 0.54 0.56